ELY5111 LLBG-LIRN

Flight info

Callsign ELY5111
Flight time 3h 0m
Altitude 36000
Route SUVAS L53 ANIDE/N0452F380 DCT KUGGI DCT IXONI UL53 KRK UL995 TIGRA DCT TOPNO L995 DOGUS/N0370F180 L995 EKTOL
Aircraft B738/M-VGDW/C

Departure

Time 2026-05-04 14:13
Airport Ben Gurion International Airport (LLBG)

Arrival

Time 2026-05-04 17:14
Airport Naples International Airport (LIRN)
Time Latitude Longitude Altitude Speed Heading
2026-05-04 13:51 32.00300 34.87444 143 ft 0 kts 324°
2026-05-04 14:02 32.00298 34.87445 143 ft 2 kts 325°
2026-05-04 14:03 32.00279 34.87453 143 ft 2 kts 341°
2026-05-04 14:03 32.00263 34.87462 143 ft 4 kts 288°
2026-05-04 14:03 32.00259 34.87488 143 ft 2 kts 287°
2026-05-04 14:03 32.00249 34.87515 143 ft 4 kts 303°
2026-05-04 14:04 32.00223 34.87563 143 ft 4 kts 301°
2026-05-04 14:04 32.00209 34.87587 143 ft 4 kts 309°
2026-05-04 14:04 32.00190 34.87607 143 ft 4 kts 340°
2026-05-04 14:05 32.00141 34.87598 143 ft 3 kts 32°
2026-05-04 14:05 32.00119 34.87582 143 ft 4 kts 32°
2026-05-04 14:05 32.00106 34.87572 143 ft 0 kts 32°
2026-05-04 14:07 32.00113 34.87577 143 ft 5 kts 32°
2026-05-04 14:07 32.00175 34.87623 143 ft 17 kts 32°
2026-05-04 14:07 32.00310 34.87719 143 ft 24 kts 31°
2026-05-04 14:07 32.00447 34.87817 143 ft 22 kts 31°
2026-05-04 14:08 32.00578 34.87911 143 ft 23 kts 31°
2026-05-04 14:08 32.00731 34.88022 143 ft 28 kts 31°
2026-05-04 14:08 32.00898 34.88142 143 ft 27 kts 31°
2026-05-04 14:08 32.01065 34.88261 143 ft 29 kts 31°
2026-05-04 14:09 32.01377 34.88539 143 ft 29 kts 54°
2026-05-04 14:09 32.01471 34.88739 143 ft 27 kts 70°
2026-05-04 14:10 32.01536 34.89102 143 ft 13 kts 80°
2026-05-04 14:10 32.01591 34.89163 143 ft 9 kts 347°
2026-05-04 14:10 32.01627 34.89154 143 ft 5 kts 349°
2026-05-04 14:10 32.01643 34.89151 143 ft 0 kts 349°
2026-05-04 14:11 32.01700 34.89139 143 ft 11 kts 349°
2026-05-04 14:11 32.01746 34.89098 143 ft 8 kts 264°
2026-05-04 14:12 32.01743 34.89077 143 ft 0 kts 259°
2026-05-04 14:12 32.01731 34.89000 143 ft 32 kts 259°
2026-05-04 14:13 32.01653 34.88489 143 ft 95 kts 259°
2026-05-04 14:13 32.01501 34.87498 165 ft 147 kts 259°
2026-05-04 14:13 32.01309 34.86254 713 ft 157 kts 259°
2026-05-04 14:13 32.01084 34.84995 1569 ft 155 kts 257°
2026-05-04 14:14 32.00835 34.83779 2444 ft 147 kts 257°
2026-05-04 14:14 32.00340 34.81381 3739 ft 162 kts 257°
2026-05-04 14:14 32.00059 34.80025 4140 ft 182 kts 257°
2026-05-04 14:15 31.99375 34.76702 4904 ft 228 kts 258°
2026-05-04 14:15 31.99652 34.72839 6298 ft 250 kts 287°
2026-05-04 14:16 32.01019 34.68811 7326 ft 284 kts 288°
2026-05-04 14:16 32.01735 34.66545 7731 ft 304 kts 288°
2026-05-04 14:17 32.03181 34.61689 9074 ft 320 kts 284°
2026-05-04 14:17 32.03776 34.59136 9928 ft 321 kts 282°
2026-05-04 14:17 32.04854 34.54023 11658 ft 323 kts 282°
2026-05-04 14:18 32.05406 34.51451 12485 ft 323 kts 282°
2026-05-04 14:18 32.06530 34.46301 14093 ft 325 kts 282°
2026-05-04 14:19 32.07670 34.41122 15623 ft 327 kts 281°
2026-05-04 14:19 32.08244 34.38523 16366 ft 328 kts 281°
2026-05-04 14:19 32.08821 34.35931 17096 ft 328 kts 281°
2026-05-04 14:19 32.09427 34.33321 17773 ft 329 kts 281°
2026-05-04 14:20 32.10021 34.30712 18463 ft 329 kts 281°
2026-05-04 14:20 32.10607 34.28099 19060 ft 332 kts 280°
2026-05-04 14:20 32.11196 34.25444 19655 ft 335 kts 280°
2026-05-04 14:21 32.12373 34.20106 20796 ft 339 kts 280°
2026-05-04 14:21 32.12965 34.17411 21337 ft 341 kts 280°
2026-05-04 14:21 32.13640 34.14711 21852 ft 346 kts 284°
2026-05-04 14:21 32.14621 34.12093 22360 ft 353 kts 291°
2026-05-04 14:22 32.15870 34.09574 22838 ft 358 kts 294°
2026-05-04 14:22 32.17169 34.07053 23314 ft 360 kts 294°
2026-05-04 14:22 32.18470 34.04537 23770 ft 362 kts 294°
2026-05-04 14:22 32.19787 34.01985 24209 ft 364 kts 294°
2026-05-04 14:23 32.22426 33.96858 25075 ft 367 kts 293°
2026-05-04 14:23 32.23758 33.94264 25493 ft 369 kts 293°
2026-05-04 14:23 32.25092 33.91664 25877 ft 371 kts 293°
2026-05-04 14:24 32.26431 33.89051 26256 ft 373 kts 293°
2026-05-04 14:24 32.27770 33.86437 26649 ft 374 kts 293°
2026-05-04 14:24 32.29123 33.83791 26996 ft 377 kts 293°
2026-05-04 14:24 32.30481 33.81136 27355 ft 378 kts 293°
2026-05-04 14:25 32.31849 33.78457 27665 ft 381 kts 293°
2026-05-04 14:25 32.34600 33.73083 28337 ft 384 kts 294°
2026-05-04 14:25 32.35999 33.70391 28631 ft 386 kts 294°
2026-05-04 14:26 32.37393 33.67697 29006 ft 385 kts 293°
2026-05-04 14:26 32.38783 33.64999 29493 ft 382 kts 293°
2026-05-04 14:26 32.40156 33.62327 29961 ft 379 kts 293°
2026-05-04 14:26 32.41518 33.59668 30397 ft 377 kts 293°
2026-05-04 14:27 32.42877 33.57013 30730 ft 377 kts 293°
2026-05-04 14:27 32.44241 33.54343 31019 ft 379 kts 293°
2026-05-04 14:27 32.45598 33.51685 31409 ft 377 kts 293°
2026-05-04 14:27 32.46952 33.49029 31763 ft 377 kts 293°
2026-05-04 14:28 32.48302 33.46377 32121 ft 375 kts 293°
2026-05-04 14:28 32.49193 33.44625 32350 ft 375 kts 293°
2026-05-04 14:28 32.50541 33.41976 32687 ft 374 kts 293°
2026-05-04 14:28 32.51903 33.39296 32958 ft 375 kts 293°
2026-05-04 14:29 32.54563 33.34054 33607 ft 374 kts 293°
2026-05-04 14:29 32.57242 33.28769 34217 ft 373 kts 294°
2026-05-04 14:30 32.58580 33.26125 34460 ft 374 kts 294°
2026-05-04 14:30 32.59923 33.23471 34672 ft 376 kts 293°
2026-05-04 14:30 32.62604 33.18165 35213 ft 375 kts 293°
2026-05-04 14:31 32.63949 33.15500 35406 ft 377 kts 293°
2026-05-04 14:31 32.66645 33.10154 35903 ft 377 kts 293°
2026-05-04 14:32 32.69361 33.04759 36010 ft 383 kts 294°
2026-05-04 14:32 32.72096 32.99320 36009 ft 383 kts 294°
2026-05-04 14:33 32.74820 32.93892 36001 ft 383 kts 294°
2026-05-04 14:33 32.77547 32.88451 35987 ft 383 kts 294°
2026-05-04 14:34 32.80265 32.83022 35980 ft 382 kts 294°
2026-05-04 14:34 32.82977 32.77595 35977 ft 383 kts 294°
2026-05-04 14:35 32.85693 32.72153 35974 ft 383 kts 294°
2026-05-04 14:35 32.88412 32.66696 35978 ft 383 kts 294°
2026-05-04 14:36 32.91124 32.61245 35976 ft 382 kts 294°
2026-05-04 14:36 32.93829 32.55800 35973 ft 382 kts 294°
2026-05-04 14:37 32.96536 32.50345 35971 ft 383 kts 294°
2026-05-04 14:37 32.99244 32.44878 35971 ft 383 kts 294°
2026-05-04 14:38 33.01948 32.39411 35975 ft 383 kts 294°
2026-05-04 14:38 33.04653 32.33933 35973 ft 383 kts 294°
2026-05-04 14:39 33.07350 32.28464 35974 ft 383 kts 294°
2026-05-04 14:39 33.10055 32.22970 35981 ft 385 kts 294°
2026-05-04 14:40 33.14110 32.14720 35995 ft 384 kts 294°
2026-05-04 14:40 33.16811 32.09214 35994 ft 384 kts 294°
2026-05-04 14:41 33.19507 32.03708 35992 ft 384 kts 294°
2026-05-04 14:42 33.24895 31.92683 35989 ft 384 kts 294°
2026-05-04 14:42 33.27587 31.87163 35987 ft 384 kts 294°
2026-05-04 14:43 33.30275 31.81641 35986 ft 385 kts 294°
2026-05-04 14:43 33.32962 31.76114 35984 ft 385 kts 294°
2026-05-04 14:44 33.35650 31.70575 35983 ft 385 kts 294°
2026-05-04 14:44 33.38333 31.65037 35982 ft 385 kts 294°
2026-05-04 14:45 33.41011 31.59502 35981 ft 385 kts 294°
2026-05-04 14:45 33.43692 31.53954 35980 ft 385 kts 294°
2026-05-04 14:46 33.46354 31.48435 35979 ft 385 kts 294°
2026-05-04 14:46 33.49030 31.42878 35978 ft 385 kts 294°
2026-05-04 14:47 33.51704 31.37316 35978 ft 385 kts 294°
2026-05-04 14:47 33.54370 31.31764 35977 ft 385 kts 294°
2026-05-04 14:48 33.57037 31.26200 35976 ft 385 kts 294°
2026-05-04 14:48 33.59699 31.20640 35976 ft 384 kts 295°
2026-05-04 14:49 33.62357 31.15078 35976 ft 384 kts 295°
2026-05-04 14:49 33.65008 31.09522 35975 ft 384 kts 294°
2026-05-04 14:50 33.67658 31.03960 35975 ft 383 kts 295°
2026-05-04 14:50 33.70302 30.98401 35975 ft 383 kts 295°
2026-05-04 14:51 33.72939 30.92847 35975 ft 383 kts 295°
2026-05-04 14:51 33.75578 30.87281 35975 ft 384 kts 295°
2026-05-04 14:52 33.78214 30.81714 35975 ft 383 kts 295°
2026-05-04 14:52 33.80848 30.76142 35980 ft 383 kts 295°
2026-05-04 14:53 33.83480 30.70564 35984 ft 384 kts 295°
2026-05-04 14:53 33.86110 30.64983 35984 ft 383 kts 295°
2026-05-04 14:54 33.88735 30.59401 35985 ft 383 kts 295°
2026-05-04 14:54 33.91362 30.53810 35985 ft 383 kts 295°
2026-05-04 14:55 33.93980 30.48227 35985 ft 383 kts 295°
2026-05-04 14:55 33.96599 30.42632 35985 ft 384 kts 295°
2026-05-04 14:56 33.99215 30.37035 35986 ft 383 kts 295°
2026-05-04 14:56 34.01840 30.31430 35986 ft 385 kts 295°
2026-05-04 14:57 34.04458 30.25806 36048 ft 385 kts 295°
2026-05-04 14:57 34.05770 30.22975 36234 ft 386 kts 295°
2026-05-04 14:57 34.07076 30.20151 36496 ft 386 kts 295°
2026-05-04 14:58 34.08379 30.17332 36746 ft 386 kts 295°
2026-05-04 14:58 34.09685 30.14501 36952 ft 386 kts 295°
2026-05-04 14:58 34.10994 30.11663 37139 ft 387 kts 295°
2026-05-04 14:58 34.12304 30.08820 37328 ft 388 kts 295°
2026-05-04 14:59 34.13617 30.05968 37554 ft 388 kts 295°
2026-05-04 14:59 34.14926 30.03126 37734 ft 389 kts 295°
2026-05-04 14:59 34.17784 29.97516 37970 ft 396 kts 300°
2026-05-04 15:00 34.19382 29.94844 37980 ft 399 kts 301°
2026-05-04 15:00 34.22693 29.89445 37991 ft 399 kts 301°
2026-05-04 15:01 34.27623 29.81314 37997 ft 398 kts 301°
2026-05-04 15:01 34.30885 29.75898 37997 ft 399 kts 301°
2026-05-04 15:02 34.34145 29.70467 37998 ft 399 kts 301°
2026-05-04 15:02 34.37387 29.65081 38005 ft 400 kts 302°
2026-05-04 15:03 34.40680 29.59655 38005 ft 400 kts 302°
2026-05-04 15:03 34.43961 29.54213 38003 ft 400 kts 302°
2026-05-04 15:04 34.47233 29.48761 38001 ft 401 kts 302°
2026-05-04 15:04 34.50511 29.43288 38000 ft 401 kts 302°
2026-05-04 15:05 34.53802 29.37776 37999 ft 400 kts 302°
2026-05-04 15:05 34.57037 29.32352 37997 ft 399 kts 302°
2026-05-04 15:06 34.60298 29.26872 37999 ft 401 kts 303°
2026-05-04 15:07 34.65190 29.18639 38006 ft 402 kts 303°
2026-05-04 15:07 34.68457 29.13129 38005 ft 402 kts 303°
2026-05-04 15:08 34.71725 29.07607 38005 ft 402 kts 303°
2026-05-04 15:08 34.74974 29.02110 38005 ft 403 kts 303°
2026-05-04 15:09 34.78248 28.96562 37994 ft 403 kts 303°
2026-05-04 15:09 34.81526 28.90999 37978 ft 403 kts 303°
2026-05-04 15:10 34.86428 28.82662 37974 ft 404 kts 303°
2026-05-04 15:11 34.91328 28.74310 37978 ft 404 kts 303°
2026-05-04 15:11 34.94063 28.69640 37983 ft 405 kts 303°
2026-05-04 15:12 34.97334 28.64041 37983 ft 406 kts 303°
2026-05-04 15:12 35.00602 28.58445 37984 ft 405 kts 303°
2026-05-04 15:13 35.03877 28.52828 37985 ft 406 kts 303°
2026-05-04 15:13 35.07126 28.47245 38008 ft 407 kts 303°
2026-05-04 15:14 35.10423 28.41570 38020 ft 407 kts 303°
2026-05-04 15:14 35.13696 28.35928 38024 ft 407 kts 303°
2026-05-04 15:15 35.16970 28.30275 38025 ft 408 kts 303°
2026-05-04 15:15 35.20253 28.24597 38027 ft 409 kts 303°
2026-05-04 15:16 35.25182 28.16056 38030 ft 410 kts 303°
2026-05-04 15:17 35.30131 28.07457 38040 ft 411 kts 303°
2026-05-04 15:17 35.35068 27.98860 38039 ft 412 kts 304°
2026-05-04 15:18 35.38354 27.93124 38044 ft 411 kts 304°
2026-05-04 15:19 35.43281 27.84509 38043 ft 412 kts 304°
2026-05-04 15:19 35.48208 27.75874 38042 ft 412 kts 304°
2026-05-04 15:20 35.51488 27.70112 38043 ft 412 kts 304°
2026-05-04 15:20 35.54765 27.64346 38044 ft 412 kts 304°
2026-05-04 15:21 35.58041 27.58574 38045 ft 412 kts 304°
2026-05-04 15:22 35.62926 27.49945 38046 ft 412 kts 304°
2026-05-04 15:22 35.67848 27.41230 38047 ft 412 kts 304°
2026-05-04 15:23 35.71077 27.35503 38047 ft 411 kts 304°
2026-05-04 15:23 35.74359 27.29670 38047 ft 411 kts 304°
2026-05-04 15:24 35.80847 27.18112 38046 ft 409 kts 304°
2026-05-04 15:25 35.84040 27.12409 38048 ft 408 kts 304°
2026-05-04 15:26 35.88909 27.03694 38059 ft 408 kts 304°
2026-05-04 15:26 35.93728 26.95047 38067 ft 408 kts 304°
2026-05-04 15:27 35.98536 26.86398 38070 ft 407 kts 304°
2026-05-04 15:28 36.03353 26.77712 38073 ft 412 kts 304°
2026-05-04 15:29 36.08187 26.68974 38075 ft 411 kts 304°
2026-05-04 15:30 36.19444 26.48538 38083 ft 409 kts 304°
2026-05-04 15:31 36.24238 26.39797 38086 ft 409 kts 304°
2026-05-04 15:32 36.32212 26.25208 38093 ft 409 kts 304°
2026-05-04 15:34 36.40161 26.10604 38099 ft 409 kts 304°
2026-05-04 15:34 36.44927 26.01815 38100 ft 409 kts 304°
2026-05-04 15:35 36.49683 25.93024 38103 ft 408 kts 304°
2026-05-04 15:36 36.54419 25.84249 38105 ft 408 kts 304°
2026-05-04 15:36 36.57552 25.78431 38107 ft 408 kts 304°
2026-05-04 15:37 36.60732 25.72515 38108 ft 409 kts 304°
2026-05-04 15:37 36.63884 25.66639 38108 ft 408 kts 304°
2026-05-04 15:38 36.67039 25.60749 38109 ft 408 kts 304°
2026-05-04 15:38 36.70165 25.54903 38109 ft 408 kts 304°
2026-05-04 15:39 36.73313 25.49008 38109 ft 409 kts 304°
2026-05-04 15:40 36.78033 25.40145 38112 ft 409 kts 304°
2026-05-04 15:40 36.81178 25.34228 38113 ft 409 kts 304°
2026-05-04 15:41 36.84321 25.28303 38113 ft 409 kts 304°
2026-05-04 15:41 36.87463 25.22370 38113 ft 410 kts 304°
2026-05-04 15:42 36.90610 25.16418 38112 ft 410 kts 304°
2026-05-04 15:42 36.93768 25.10434 38112 ft 410 kts 304°
2026-05-04 15:43 36.96883 25.04522 38112 ft 409 kts 304°
2026-05-04 15:43 37.00030 24.98538 38113 ft 409 kts 304°
2026-05-04 15:44 37.03153 24.92589 38114 ft 409 kts 304°
2026-05-04 15:44 37.06273 24.86633 38117 ft 409 kts 304°
2026-05-04 15:45 37.09389 24.80677 38121 ft 409 kts 304°
2026-05-04 15:45 37.12505 24.74709 38124 ft 409 kts 304°
2026-05-04 15:46 37.15616 24.68741 38128 ft 409 kts 304°
2026-05-04 15:46 37.18726 24.62762 38130 ft 409 kts 304°
2026-05-04 15:47 37.21833 24.56781 38131 ft 409 kts 304°
2026-05-04 15:47 37.24936 24.50796 38132 ft 410 kts 304°
2026-05-04 15:48 37.28048 24.44782 38133 ft 411 kts 304°
2026-05-04 15:48 37.32687 24.35797 38135 ft 411 kts 304°
2026-05-04 15:49 37.35793 24.29769 38136 ft 411 kts 304°
2026-05-04 15:49 37.38900 24.23727 38137 ft 411 kts 304°
2026-05-04 15:50 37.41500 24.18662 38138 ft 412 kts 304°
2026-05-04 15:50 37.44606 24.12601 38140 ft 412 kts 304°
2026-05-04 15:51 37.47710 24.06533 38141 ft 413 kts 304°
2026-05-04 15:51 37.50811 24.00461 38141 ft 412 kts 305°
2026-05-04 15:52 37.53899 23.94403 38141 ft 410 kts 305°
2026-05-04 15:52 37.56982 23.88344 38135 ft 411 kts 305°
2026-05-04 15:53 37.60066 23.82270 38135 ft 411 kts 305°
2026-05-04 15:53 37.63161 23.76201 38134 ft 412 kts 305°
2026-05-04 15:54 37.66232 23.70166 38132 ft 411 kts 304°
2026-05-04 15:54 37.69297 23.64086 38131 ft 411 kts 304°
2026-05-04 15:55 37.72356 23.57995 38129 ft 410 kts 304°
2026-05-04 15:55 37.75431 23.51862 38122 ft 410 kts 304°
2026-05-04 15:56 37.78481 23.45779 38116 ft 410 kts 304°
2026-05-04 15:56 37.81587 23.39736 38115 ft 408 kts 306°
2026-05-04 15:57 37.84830 23.33838 38113 ft 408 kts 307°
2026-05-04 15:57 37.88052 23.27926 38113 ft 408 kts 306°
2026-05-04 15:58 37.91258 23.22005 38113 ft 407 kts 306°
2026-05-04 15:58 37.94447 23.16091 38115 ft 407 kts 306°
2026-05-04 15:59 37.97633 23.10166 38118 ft 406 kts 306°
2026-05-04 15:59 38.00828 23.04281 38117 ft 405 kts 306°
2026-05-04 16:00 38.04045 22.98365 38119 ft 409 kts 306°
2026-05-04 16:00 38.07263 22.92404 38118 ft 409 kts 306°
2026-05-04 16:01 38.10465 22.86450 38112 ft 408 kts 306°
2026-05-04 16:01 38.13654 22.80500 38112 ft 407 kts 306°
2026-05-04 16:02 38.16830 22.74561 38117 ft 406 kts 306°
2026-05-04 16:03 38.21589 22.65640 38122 ft 406 kts 306°
2026-05-04 16:03 38.24749 22.59701 38122 ft 405 kts 306°
2026-05-04 16:04 38.27903 22.53763 38124 ft 405 kts 306°
2026-05-04 16:04 38.32629 22.44845 38125 ft 405 kts 306°
2026-05-04 16:05 38.35765 22.38914 38126 ft 403 kts 306°
2026-05-04 16:06 38.40472 22.30001 38129 ft 406 kts 306°
2026-05-04 16:07 38.46771 22.18010 38128 ft 407 kts 305°
2026-05-04 16:08 38.53071 22.05986 38131 ft 406 kts 306°
2026-05-04 16:09 38.60871 21.91033 38134 ft 405 kts 306°
2026-05-04 16:10 38.67163 21.78923 38128 ft 409 kts 306°
2026-05-04 16:11 38.73374 21.66923 38129 ft 403 kts 306°
2026-05-04 16:12 38.82665 21.48889 38127 ft 404 kts 305°
2026-05-04 16:13 38.88849 21.36831 38132 ft 405 kts 306°
2026-05-04 16:14 38.95021 21.24750 38135 ft 404 kts 305°
2026-05-04 16:16 39.02703 21.09649 38135 ft 405 kts 305°
2026-05-04 16:17 39.10393 20.94461 38132 ft 405 kts 305°
2026-05-04 16:18 39.16539 20.82270 38128 ft 405 kts 305°
2026-05-04 16:19 39.24196 20.67018 38122 ft 405 kts 305°
2026-05-04 16:20 39.31830 20.51738 38119 ft 405 kts 305°
2026-05-04 16:22 39.39454 20.36405 38115 ft 406 kts 305°
2026-05-04 16:23 39.48586 20.17939 38113 ft 406 kts 305°
2026-05-04 16:25 39.57630 19.99546 38112 ft 406 kts 305°
2026-05-04 16:26 39.68199 19.77916 38112 ft 406 kts 304°
2026-05-04 16:28 39.75731 19.62409 38112 ft 406 kts 304°
2026-05-04 16:29 39.86208 19.40711 38114 ft 404 kts 304°
2026-05-04 16:31 39.93184 19.26263 38115 ft 403 kts 304°
2026-05-04 16:32 40.02040 19.07650 38115 ft 404 kts 304°
2026-05-04 16:33 40.07406 18.94733 38116 ft 407 kts 296°
2026-05-04 16:34 40.10686 18.84540 38115 ft 405 kts 295°
2026-05-04 16:35 40.17197 18.64207 38114 ft 404 kts 295°
2026-05-04 16:36 40.20468 18.54087 38113 ft 402 kts 296°
2026-05-04 16:37 40.23672 18.43947 38112 ft 403 kts 294°
2026-05-04 16:38 40.27549 18.30199 38112 ft 402 kts 293°
2026-05-04 16:39 40.32344 18.13003 38112 ft 401 kts 292°
2026-05-04 16:40 40.36199 17.99299 38112 ft 401 kts 293°
2026-05-04 16:41 40.40987 17.82186 38112 ft 400 kts 292°
2026-05-04 16:43 40.45737 17.64996 38112 ft 401 kts 292°
2026-05-04 16:43 40.48571 17.54677 38112 ft 400 kts 292°
2026-05-04 16:45 40.54195 17.34014 38112 ft 400 kts 292°
2026-05-04 16:46 40.58813 17.16858 38120 ft 399 kts 292°
2026-05-04 16:47 40.62555 17.03109 38133 ft 399 kts 292°
2026-05-04 16:48 40.65356 16.92777 37693 ft 399 kts 292°
2026-05-04 16:48 40.66278 16.89346 37121 ft 397 kts 292°
2026-05-04 16:49 40.68122 16.82459 35827 ft 399 kts 292°
2026-05-04 16:49 40.69961 16.75566 34495 ft 400 kts 291°
2026-05-04 16:50 40.71808 16.68617 33123 ft 402 kts 291°
2026-05-04 16:50 40.73645 16.61686 31965 ft 398 kts 291°
2026-05-04 16:51 40.75456 16.54830 30945 ft 393 kts 291°
2026-05-04 16:51 40.76351 16.51438 30442 ft 390 kts 291°
2026-05-04 16:51 40.78121 16.44711 29457 ft 386 kts 291°
2026-05-04 16:52 40.79871 16.38045 28489 ft 382 kts 290°
2026-05-04 16:52 40.80736 16.34741 28007 ft 380 kts 290°
2026-05-04 16:53 40.82448 16.28193 27050 ft 375 kts 290°
2026-05-04 16:53 40.84977 16.18485 25623 ft 369 kts 290°
2026-05-04 16:54 40.85807 16.15285 25151 ft 367 kts 290°
2026-05-04 16:55 40.89109 16.02682 23276 ft 359 kts 290°
2026-05-04 16:55 40.90713 15.96474 22344 ft 356 kts 289°
2026-05-04 16:56 40.92291 15.90304 21415 ft 352 kts 289°
2026-05-04 16:56 40.94622 15.81149 20032 ft 348 kts 289°
2026-05-04 16:57 40.95393 15.78121 19576 ft 348 kts 289°
2026-05-04 16:57 40.96937 15.72054 18667 ft 347 kts 289°
2026-05-04 16:58 40.99223 15.63051 17347 ft 349 kts 288°
2026-05-04 16:58 40.99994 15.60004 16936 ft 347 kts 288°
2026-05-04 16:59 41.01550 15.53985 16114 ft 344 kts 289°
2026-05-04 17:00 41.04570 15.42067 14500 ft 338 kts 288°
2026-05-04 17:00 41.06771 15.33251 13292 ft 334 kts 288°
2026-05-04 17:01 41.08220 15.27427 12511 ft 332 kts 288°
2026-05-04 17:01 41.09657 15.21637 11727 ft 329 kts 287°
2026-05-04 17:02 41.11125 15.15914 10853 ft 327 kts 288°
2026-05-04 17:02 41.12609 15.10243 10021 ft 324 kts 288°
2026-05-04 17:03 41.13344 15.07417 9607 ft 323 kts 288°
2026-05-04 17:03 41.14075 15.04623 9267 ft 319 kts 288°
2026-05-04 17:03 41.14429 14.99043 9015 ft 296 kts 256°
2026-05-04 17:04 41.13339 14.93996 8876 ft 274 kts 253°
2026-05-04 17:04 41.12314 14.89310 8677 ft 256 kts 253°
2026-05-04 17:05 41.11151 14.84948 8239 ft 248 kts 249°
2026-05-04 17:05 41.09964 14.80670 7686 ft 246 kts 250°
2026-05-04 17:06 41.08813 14.76446 7170 ft 244 kts 250°
2026-05-04 17:06 41.08232 14.74303 7022 ft 244 kts 250°
2026-05-04 17:07 41.07078 14.70038 7011 ft 252 kts 250°
2026-05-04 17:07 41.06675 14.68552 7006 ft 255 kts 250°
2026-05-04 17:07 41.05798 14.65680 6991 ft 252 kts 242°
2026-05-04 17:07 41.04905 14.63674 6763 ft 254 kts 237°
2026-05-04 17:08 41.03936 14.61688 6207 ft 260 kts 237°
2026-05-04 17:08 41.02097 14.57764 5492 ft 239 kts 238°
2026-05-04 17:08 41.01222 14.55893 5156 ft 240 kts 238°
2026-05-04 17:09 41.00342 14.54017 4807 ft 241 kts 238°
2026-05-04 17:09 40.99450 14.52117 4457 ft 243 kts 238°
2026-05-04 17:09 40.98558 14.50220 4104 ft 243 kts 238°
2026-05-04 17:10 40.96810 14.46501 3385 ft 228 kts 238°
2026-05-04 17:10 40.94430 14.41444 2427 ft 204 kts 238°
2026-05-04 17:11 40.93716 14.39928 2144 ft 184 kts 238°
2026-05-04 17:11 40.93067 14.38549 1905 ft 170 kts 238°
2026-05-04 17:11 40.91896 14.36064 1431 ft 146 kts 239°
2026-05-04 17:12 40.91371 14.34949 1204 ft 140 kts 240°
2026-05-04 17:12 40.90362 14.32802 812 ft 138 kts 239°
2026-05-04 17:13 40.88871 14.29647 307 ft 127 kts 239°
2026-05-04 17:14 40.88166 14.28378 302 ft 19 kts 208°
2026-05-04 17:14 40.88080 14.28323 302 ft 10 kts 181°
2026-05-04 17:14 40.88050 14.28456 302 ft 9 kts 97°
2026-05-04 17:15 40.88036 14.28531 302 ft 8 kts 154°
2026-05-04 17:15 40.87954 14.28477 302 ft 9 kts 222°
2026-05-04 17:16 40.87948 14.28304 302 ft 10 kts 277°
2026-05-04 17:16 40.87888 14.28227 302 ft 2 kts 186°
2026-05-04 17:17 40.87887 14.28227 302 ft 0 kts 187°